• In Schweiz
  • Länderverzeichnis
  • Für 7 Tage
  • Wassertemperatur
  • Satellitenkarten
  • Wetterkarte
  • Widgets
  • user-avatar
    Anmelden

    Stündliche Wetter Kirov

    Heute, 18 Juli, Mittwoch

    Zeit Temperatur Niederschläge Wind Luftdruck Luftfeuchtigkeit
    00:00 +22°C° 0 mm 5 m/S 746 mmHg 71%
    01:00 +22°C° 0 mm 5 m/S 746 mmHg 73%
    02:00 +22°C° 0 mm 5 m/S 746 mmHg 75%
    03:00 +21°C° 0 mm 4 m/S 745 mmHg 79%
    04:00 +21°C° 0 mm 4 m/S 746 mmHg 79%
    05:00 +21°C° 0 mm 4 m/S 746 mmHg 79%
    06:00 +21°C° 0 mm 5 m/S 746 mmHg 80%
    07:00 +23°C° 0 mm 5 m/S 746 mmHg 72%
    08:00 +26°C° 0 mm 6 m/S 746 mmHg 64%
    09:00 +27°C° 0 mm 7 m/S 746 mmHg 56%
    10:00 +28°C° 0 mm 7 m/S 746 mmHg 52%
    11:00 +29°C° 0 mm 7 m/S 746 mmHg 49%
    12:00 +30°C° 0 mm 7 m/S 746 mmHg 45%
    13:00 +30°C° 0 mm 7 m/S 746 mmHg 44%
    14:00 +32°C° 0 mm 7 m/S 746 mmHg 43%
    15:00 +32°C° 0 mm 7 m/S 746 mmHg 41%
    16:00 +32°C° 0 mm 7 m/S 746 mmHg 43%
    17:00 +30°C° 0 mm 6 m/S 746 mmHg 44%
    18:00 +29°C° 0 mm 6 m/S 746 mmHg 45%
    19:00 +28°C° 0 mm 5 m/S 746 mmHg 50%
    20:00 +26°C° 0 mm 4 m/S 746 mmHg 54%
    21:00 +25°C° 0 mm 3 m/S 746 mmHg 58%
    22:00 +24°C° 0 mm 2 m/S 747 mmHg 59%
    23:00 +24°C° 0 mm 2 m/S 747 mmHg 60%

    Morgen, 19 Juli, Donnerstag

    Zeit Temperatur Niederschläge Wind Luftdruck Luftfeuchtigkeit
    00:00 +23°C° 0 mm 2 m/S 747 mmHg 61%
    01:00 +23°C° 0 mm 2 m/S 747 mmHg 62%
    02:00 +23°C° 0 mm 1 m/S 747 mmHg 64%
    03:00 +23°C° 0 mm 1 m/S 747 mmHg 65%
    04:00 +23°C° 0,1 mm 1 m/S 747 mmHg 67%
    05:00 +23°C° 0,1 mm 2 m/S 747 mmHg 68%
    06:00 +23°C° 0,1 mm 2 m/S 747 mmHg 70%
    07:00 +24°C° 0,3 mm 2 m/S 747 mmHg 65%
    08:00 +26°C° 0,3 mm 2 m/S 747 mmHg 61%
    09:00 +27°C° 0,3 mm 3 m/S 747 mmHg 56%
    10:00 +28°C° 0,2 mm 3 m/S 747 mmHg 55%
    11:00 +29°C° 0,2 mm 3 m/S 747 mmHg 54%
    12:00 +29°C° 0,2 mm 4 m/S 747 mmHg 52%
    13:00 +30°C° 0,1 mm 3 m/S 747 mmHg 51%
    14:00 +30°C° 0,1 mm 3 m/S 747 mmHg 51%
    15:00 +30°C° 0,1 mm 3 m/S 747 mmHg 50%
    16:00 +30°C° 0 mm 3 m/S 747 mmHg 50%
    17:00 +30°C° 0 mm 3 m/S 747 mmHg 50%
    18:00 +30°C° 0 mm 2 m/S 747 mmHg 50%
    19:00 +28°C° 0,2 mm 2 m/S 747 mmHg 55%
    20:00 +27°C° 0,2 mm 2 m/S 747 mmHg 59%
    21:00 +26°C° 0,2 mm 2 m/S 748 mmHg 64%
    22:00 +25°C° 0,2 mm 1 m/S 748 mmHg 66%
    23:00 +25°C° 0,2 mm 1 m/S 748 mmHg 68%

    übermorgen, 20 Juli, Freitag

    Zeit Temperatur Niederschläge Wind Luftdruck Luftfeuchtigkeit
    00:00 +24°C° 0,2 mm 1 m/S 748 mmHg 70%
    01:00 +24°C° 0 mm 1 m/S 747 mmHg 71%
    02:00 +24°C° 0 mm 1 m/S 747 mmHg 72%
    03:00 +23°C° 0 mm 1 m/S 747 mmHg 74%
    04:00 +23°C° 0 mm 1 m/S 747 mmHg 74%
    05:00 +24°C° 0 mm 1 m/S 748 mmHg 75%
    06:00 +24°C° 0 mm 1 m/S 748 mmHg 75%
    07:00 +25°C° 0 mm 1 m/S 748 mmHg 70%
    08:00 +27°C° 0 mm 2 m/S 748 mmHg 64%
    09:00 +28°C° 0 mm 2 m/S 748 mmHg 58%
    10:00 +30°C° 0 mm 3 m/S 748 mmHg 53%
    11:00 +31°C° 0 mm 3 m/S 748 mmHg 48%
    12:00 +33°C° 0 mm 3 m/S 748 mmHg 43%
    13:00 +33°C° 0 mm 3 m/S 748 mmHg 43%
    14:00 +33°C° 0 mm 3 m/S 747 mmHg 43%
    15:00 +33°C° 0 mm 3 m/S 747 mmHg 43%
    16:00 +33°C° 0 mm 3 m/S 747 mmHg 43%
    17:00 +33°C° 0 mm 3 m/S 747 mmHg 42%
    18:00 +32°C° 0 mm 2 m/S 747 mmHg 42%
    19:00 +30°C° 0,2 mm 2 m/S 748 mmHg 47%
    20:00 +28°C° 0,2 mm 2 m/S 748 mmHg 53%
    21:00 +27°C° 0,2 mm 2 m/S 748 mmHg 58%
    22:00 +26°C° 0 mm 2 m/S 748 mmHg 60%
    23:00 +25°C° 0 mm 2 m/S 748 mmHg 62%

    21 Juli, Samstag

    Zeit Temperatur Niederschläge Wind Luftdruck Luftfeuchtigkeit
    00:00 +25°C° 0 mm 2 m/S 748 mmHg 63%
    01:00 +24°C° 0,2 mm 1 m/S 748 mmHg 66%
    02:00 +24°C° 0,2 mm 1 m/S 748 mmHg 68%
    03:00 +23°C° 0,2 mm 1 m/S 748 mmHg 70%
    04:00 +23°C° 0 mm 1 m/S 748 mmHg 70%
    05:00 +24°C° 0 mm 1 m/S 748 mmHg 70%
    06:00 +24°C° 0 mm 1 m/S 748 mmHg 70%
    07:00 +26°C° 0 mm 1 m/S 748 mmHg 63%
    08:00 +27°C° 0 mm 1 m/S 748 mmHg 56%
    09:00 +29°C° 0 mm 2 m/S 749 mmHg 49%
    10:00 +30°C° 0 mm 2 m/S 749 mmHg 45%
    11:00 +33°C° 0 mm 3 m/S 749 mmHg 42%
    12:00 +34°C° 0 mm 3 m/S 748 mmHg 38%
    13:00 +34°C° 0 mm 3 m/S 748 mmHg 37%
    14:00 +35°C° 0 mm 4 m/S 748 mmHg 36%
    15:00 +35°C° 0 mm 4 m/S 748 mmHg 35%
    16:00 +35°C° 0 mm 3 m/S 748 mmHg 37%
    17:00 +34°C° 0 mm 3 m/S 748 mmHg 39%
    18:00 +34°C° 0 mm 3 m/S 748 mmHg 41%
    19:00 +31°C° 0 mm 3 m/S 749 mmHg 45%
    20:00 +29°C° 0 mm 3 m/S 749 mmHg 50%
    21:00 +28°C° 0 mm 2 m/S 749 mmHg 54%
    22:00 +27°C° 0 mm 2 m/S 749 mmHg 57%
    23:00 +26°C° 0 mm 2 m/S 749 mmHg 59%

    22 Juli, Sonntag

    Zeit Temperatur Niederschläge Wind Luftdruck Luftfeuchtigkeit
    00:00 +25°C° 0 mm 2 m/S 749 mmHg 62%
    01:00 +25°C° 0 mm 2 m/S 749 mmHg 64%
    02:00 +24°C° 0 mm 2 m/S 749 mmHg 66%
    03:00 +24°C° 0 mm 2 m/S 749 mmHg 68%
    04:00 +24°C° 0 mm 1 m/S 749 mmHg 69%
    05:00 +24°C° 0 mm 1 m/S 749 mmHg 71%
    06:00 +24°C° 0 mm 1 m/S 749 mmHg 72%
    07:00 +26°C° 0 mm 1 m/S 749 mmHg 66%
    08:00 +28°C° 0 mm 2 m/S 749 mmHg 59%
    09:00 +30°C° 0 mm 2 m/S 749 mmHg 53%
    10:00 +31°C° 0 mm 3 m/S 749 mmHg 48%
    11:00 +33°C° 0 mm 3 m/S 749 mmHg 44%
    12:00 +34°C° 0 mm 3 m/S 749 mmHg 39%
    13:00 +35°C° 0 mm 3 m/S 748 mmHg 38%
    14:00 +35°C° 0 mm 3 m/S 748 mmHg 37%
    15:00 +36°C° 0 mm 3 m/S 748 mmHg 35%
    16:00 +35°C° 0 mm 3 m/S 748 mmHg 36%
    17:00 +35°C° 0 mm 3 m/S 748 mmHg 37%
    18:00 +35°C° 0 mm 3 m/S 748 mmHg 38%
    19:00 +32°C° 0 mm 2 m/S 748 mmHg 42%
    20:00 +31°C° 0 mm 2 m/S 748 mmHg 46%
    21:00 +29°C° 0 mm 2 m/S 748 mmHg 50%
    22:00 +28°C° 0,1 mm 2 m/S 748 mmHg 53%
    23:00 +27°C° 0,1 mm 2 m/S 748 mmHg 56%

    23 Juli, Montag

    Zeit Temperatur Niederschläge Wind Luftdruck Luftfeuchtigkeit
    00:00 +27°C° 0,1 mm 1 m/S 748 mmHg 59%
    01:00 +26°C° 0,1 mm 1 m/S 748 mmHg 61%
    02:00 +26°C° 0,1 mm 1 m/S 748 mmHg 63%
    03:00 +25°C° 0,1 mm 1 m/S 748 mmHg 65%
    04:00 +25°C° 0,2 mm 1 m/S 748 mmHg 67%
    05:00 +24°C° 0,2 mm 0 m/S 748 mmHg 68%
    06:00 +24°C° 0,2 mm 0 m/S 748 mmHg 70%
    07:00 +27°C° 0,1 mm 1 m/S 748 mmHg 64%
    08:00 +29°C° 0,1 mm 1 m/S 748 mmHg 58%
    09:00 +30°C° 0,1 mm 1 m/S 748 mmHg 52%
    10:00 +31°C° 0 mm 2 m/S 748 mmHg 48%
    11:00 +32°C° 0 mm 2 m/S 748 mmHg 43%
    12:00 +35°C° 0 mm 3 m/S 748 mmHg 39%
    13:00 +35°C° 0 mm 3 m/S 748 mmHg 37%
    14:00 +35°C° 0 mm 3 m/S 747 mmHg 36%
    15:00 +36°C° 0 mm 3 m/S 747 mmHg 34%
    16:00 +35°C° 0 mm 2 m/S 747 mmHg 36%
    17:00 +35°C° 0 mm 2 m/S 747 mmHg 37%
    18:00 +35°C° 0 mm 2 m/S 747 mmHg 39%
    19:00 +32°C° 0,3 mm 2 m/S 747 mmHg 44%
    20:00 +30°C° 0,3 mm 2 m/S 748 mmHg 49%
    21:00 +29°C° 0,3 mm 2 m/S 748 mmHg 54%
    22:00 +28°C° 0,8 mm 2 m/S 748 mmHg 58%
    23:00 +27°C° 0,8 mm 1 m/S 748 mmHg 62%
    Mehr zeigen